| time (UTC) | temp F | wind direction | speed MPH | gust MPH | rain 1hr in | rain 24hr in | rain mn in | humidity % | barometer mb |
| 20260901022038 | 59 | 173 | 0.0 | 2.0 | 0.00 | 0.01 | 0.00 | 79 | 1022.1 |
| 20260901021038 | 60 | 172 | 1.0 | 4.0 | 0.00 | 0.01 | 0.00 | 79 | 1022.1 |
| 20260901020015 | 60 | 165 | 2.0 | 5.0 | 0.00 | 0.01 | 0.00 | 79 | 1022.0 |
| 20260901015017 | 61 | 146 | 1.0 | 2.0 | 0.00 | 0.01 | 0.00 | 79 | 1022.0 |
| 20260901014020 | 61 | 140 | 1.0 | 3.0 | 0.00 | 0.01 | 0.00 | 77 | 1022.0 |
| 20260901013016 | 61 | 178 | 1.0 | 3.0 | 0.00 | 0.01 | 0.00 | 76 | 1022.0 |
| 20260901012018 | 61 | 179 | 1.0 | 3.0 | 0.00 | 0.01 | 0.00 | 76 | 1022.0 |
| 20260901011018 | 60 | 179 | 1.0 | 2.0 | 0.00 | 0.01 | 0.00 | 76 | 1022.0 |
| 20260901010140 | 60 | 181 | 2.0 | 4.0 | 0.00 | 0.01 | 0.00 | 77 | 1022.1 |
| 20260901005015 | 60 | 188 | 2.0 | 4.0 | 0.00 | 0.01 | 0.00 | 78 | 1022.1 |
| 20260901004017 | 60 | 216 | 0.0 | 2.0 | 0.00 | 0.01 | 0.00 | 79 | 1022.1 |
| 20260901003016 | 60 | 225 | 3.0 | 8.0 | 0.00 | 0.01 | 0.00 | 79 | 1022.2 |
| 20260901002037 | 60 | 220 | 1.0 | 4.0 | 0.00 | 0.01 | 0.00 | 80 | 1022.2 |
| 20260901001017 | 60 | 198 | 2.0 | 7.0 | 0.00 | 0.01 | 0.00 | 77 | 1022.2 |
| 20260901000036 | 59 | 193 | 2.0 | 5.0 | 0.00 | 0.01 | 0.00 | 78 | 1022.2 |
| 20260831235019 | 58 | 185 | 2.0 | 6.0 | 0.00 | 0.01 | 0.00 | 79 | 1022.1 |
| 20260831234038 | 58 | 191 | 1.0 | 4.0 | 0.00 | 0.01 | 0.00 | 79 | 1022.0 |
| 20260831233038 | 58 | 195 | 2.0 | 5.0 | 0.00 | 0.01 | 0.00 | 80 | 1022.0 |
| 20260831232016 | 59 | 186 | 0.0 | 1.0 | 0.00 | 0.01 | 0.00 | 78 | 1022.0 |
| 20260831231041 | 59 | 192 | 2.0 | 5.0 | 0.00 | 0.01 | 0.00 | 78 | 1022.1 |
| 20260831230018 | 59 | 203 | 2.0 | 5.0 | 0.00 | 0.01 | 0.00 | 77 | 1022.1 |
| 20260831225019 | 60 | 208 | 3.0 | 7.0 | 0.00 | 0.01 | 0.00 | 77 | 1022.0 |
| 20260831224016 | 60 | 201 | 3.0 | 6.0 | 0.00 | 0.01 | 0.00 | 78 | 1022.1 |
| 20260831223016 | 60 | 222 | 2.0 | 4.0 | 0.00 | 0.01 | 0.00 | 79 | 1022.0 |
| 20260831222017 | 59 | 219 | 2.0 | 5.0 | 0.00 | 0.01 | 0.00 | 80 | 1021.9 |
| 20260831221017 | 59 | 224 | 2.0 | 4.0 | 0.00 | 0.01 | 0.00 | 81 | 1021.8 |
| 20260831220019 | 60 | 209 | 0.0 | 2.0 | 0.00 | 0.01 | 0.00 | 80 | 1021.7 |
| 20260831215017 | 61 | 197 | 1.0 | 4.0 | 0.00 | 0.01 | 0.01 | 79 | 1021.6 |
| 20260831214017 | 61 | 200 | 2.0 | 5.0 | 0.00 | 0.01 | 0.01 | 79 | 1021.4 |
| 20260831213017 | 61 | 213 | 1.0 | 3.0 | 0.00 | 0.01 | 0.01 | 78 | 1021.2 |
| 20260831212017 | 62 | 213 | 1.0 | 2.0 | 0.00 | 0.01 | 0.01 | 77 | 1021.2 |
| 20260831211017 | 62 | 213 | 2.0 | 3.0 | 0.00 | 0.01 | 0.01 | 77 | 1021.0 |
| 20260831210015 | 62 | 222 | 2.0 | 3.0 | 0.00 | 0.01 | 0.01 | 77 | 1020.9 |
| 20260831205020 | 62 | 225 | 2.0 | 3.0 | 0.00 | 0.01 | 0.01 | 77 | 1020.8 |
| 20260831204015 | 62 | 200 | 2.0 | 4.0 | 0.00 | 0.01 | 0.01 | 77 | 1020.7 |
| 20260831203017 | 62 | 199 | 1.0 | 4.0 | 0.00 | 0.01 | 0.01 | 76 | 1020.5 |
| 20260831202057 | 63 | 202 | 0.0 | 2.0 | 0.00 | 0.01 | 0.01 | 75 | 1020.3 |
| 20260831201018 | 63 | 204 | 2.0 | 4.0 | 0.00 | 0.01 | 0.01 | 74 | 1020.1 |
| 20260831200017 | 64 | 210 | 2.0 | 5.0 | 0.00 | 0.01 | 0.01 | 73 | 1020.0 |
| 20260831195016 | 65 | 186 | 4.0 | 8.0 | 0.00 | 0.01 | 0.01 | 71 | 1019.9 |
| 20260831194017 | 65 | 185 | 3.0 | 6.0 | 0.00 | 0.01 | 0.01 | 70 | 1019.9 |
| 20260831193039 | 65 | 184 | 3.0 | 7.0 | 0.00 | 0.01 | 0.01 | 69 | 1019.8 |
| 20260831192038 | 65 | 182 | 2.0 | 5.0 | 0.00 | 0.01 | 0.01 | 67 | 1019.7 |
| 20260831191017 | 66 | 176 | 3.0 | 6.0 | 0.00 | 0.01 | 0.01 | 67 | 1019.5 |
| 20260831190015 | 66 | 182 | 3.0 | 6.0 | 0.00 | 0.01 | 0.01 | 65 | 1019.5 |
| 20260831185017 | 67 | 185 | 4.0 | 7.0 | 0.00 | 0.01 | 0.01 | 64 | 1019.4 |
| 20260831184017 | 67 | 186 | 3.0 | 6.0 | 0.00 | 0.01 | 0.01 | 63 | 1019.2 |
| 20260831183019 | 68 | 184 | 3.0 | 6.0 | 0.00 | 0.01 | 0.01 | 64 | 1018.9 |
| 20260831182016 | 68 | 198 | 4.0 | 7.0 | 0.00 | 0.01 | 0.01 | 63 | 1018.6 |
| 20260831181029 | 69 | 201 | 4.0 | 7.0 | 0.00 | 0.01 | 0.01 | 62 | 1018.4 |
| 20260831180017 | 69 | 204 | 4.0 | 10.0 | 0.00 | 0.01 | 0.01 | 60 | 1018.4 |
| 20260831175036 | 70 | 201 | 4.0 | 8.0 | 0.00 | 0.01 | 0.01 | 59 | 1018.2 |
| 20260831174027 | 71 | 209 | 5.0 | 10.0 | 0.00 | 0.01 | 0.01 | 57 | 1018.1 |
| 20260831173016 | 72 | 211 | 6.0 | 13.0 | 0.00 | 0.01 | 0.01 | 56 | 1017.8 |
| 20260831172017 | 72 | 210 | 6.0 | 11.0 | 0.00 | 0.01 | 0.01 | 55 | 1017.8 |
| 20260831171037 | 72 | 209 | 7.0 | 16.0 | 0.00 | 0.01 | 0.01 | 55 | 1017.7 |
| 20260831170018 | 72 | 208 | 5.0 | 10.0 | 0.00 | 0.01 | 0.01 | 56 | 1017.6 |
| 20260831165059 | 72 | 214 | 7.0 | 13.0 | 0.00 | 0.01 | 0.01 | 55 | 1017.6 |
| 20260831164016 | 73 | 219 | 7.0 | 13.0 | 0.00 | 0.01 | 0.01 | 55 | 1017.6 |
| 20260831163017 | 73 | 219 | 5.0 | 11.0 | 0.00 | 0.01 | 0.01 | 54 | 1017.6 |
| 20260831162015 | 73 | 217 | 6.0 | 11.0 | 0.00 | 0.01 | 0.01 | 53 | 1017.4 |
| 20260831161017 | 73 | 222 | 6.0 | 12.0 | 0.00 | 0.01 | 0.01 | 52 | 1017.3 |
| 20260831160017 | 74 | 231 | 5.0 | 12.0 | 0.00 | 0.01 | 0.01 | 50 | 1017.3 |
| 20260831155016 | 74 | 215 | 5.0 | 9.0 | 0.00 | 0.01 | 0.01 | 51 | 1017.3 |
| 20260831154016 | 75 | 249 | 4.0 | 12.0 | 0.00 | 0.01 | 0.01 | 49 | 1017.3 |
| 20260831153015 | 76 | 226 | 7.0 | 14.0 | 0.00 | 0.01 | 0.01 | 48 | 1017.3 |
| 20260831152020 | 76 | 226 | 6.0 | 14.0 | 0.00 | 0.01 | 0.01 | 48 | 1017.3 |
| 20260831151039 | 76 | 257 | 7.0 | 14.0 | 0.00 | 0.01 | 0.01 | 47 | 1017.4 |
| 20260831150033 | 76 | 238 | 6.0 | 13.0 | 0.00 | 0.01 | 0.01 | 46 | 1017.6 |
| 20260831145016 | 77 | 230 | 10.0 | 18.0 | 0.00 | 0.01 | 0.01 | 45 | 1017.7 |
| 20260831144017 | 77 | 228 | 7.0 | 15.0 | 0.00 | 0.01 | 0.01 | 45 | 1017.5 |
| 20260831143018 | 77 | 229 | 9.0 | 18.0 | 0.00 | 0.01 | 0.01 | 43 | 1017.5 |
| 20260831142016 | 77 | 231 | 9.0 | 22.0 | 0.00 | 0.01 | 0.01 | 45 | 1017.5 |
| 20260831141017 | 78 | 239 | 8.0 | 15.0 | 0.00 | 0.01 | 0.01 | 43 | 1017.5 |
| 20260831140016 | 78 | 235 | 8.0 | 16.0 | 0.00 | 0.01 | 0.01 | 46 | 1017.5 |
| 20260831135017 | 78 | 244 | 8.0 | 15.0 | 0.00 | 0.01 | 0.01 | 47 | 1017.4 |
| 20260831134019 | 78 | 237 | 9.0 | 15.0 | 0.00 | 0.01 | 0.01 | 51 | 1017.5 |
| 20260831133017 | 78 | 247 | 8.0 | 13.0 | 0.00 | 0.01 | 0.01 | 54 | 1017.5 |
| 20260831132040 | 77 | 258 | 6.0 | 12.0 | 0.00 | 0.01 | 0.01 | 54 | 1017.7 |
| 20260831131036 | 78 | 227 | 7.0 | 15.0 | 0.00 | 0.01 | 0.01 | 54 | 1017.7 |
| 20260831130017 | 78 | 224 | 10.0 | 18.0 | 0.00 | 0.01 | 0.01 | 53 | 1017.8 |
| 20260831125018 | 79 | 229 | 9.0 | 18.0 | 0.00 | 0.01 | 0.01 | 54 | 1017.7 |
| 20260831124019 | 78 | 232 | 7.0 | 14.0 | 0.00 | 0.01 | 0.01 | 55 | 1017.8 |
| 20260831123016 | 78 | 242 | 7.0 | 15.0 | 0.00 | 0.01 | 0.01 | 56 | 1017.7 |
| 20260831122017 | 76 | 240 | 7.0 | 13.0 | 0.00 | 0.01 | 0.01 | 61 | 1017.8 |
| 20260831121017 | 76 | 261 | 7.0 | 16.0 | 0.00 | 0.01 | 0.01 | 60 | 1017.8 |
| 20260831120015 | 76 | 240 | 8.0 | 16.0 | 0.00 | 0.01 | 0.01 | 59 | 1017.9 |
| 20260831115018 | 76 | 229 | 6.0 | 16.0 | 0.00 | 0.01 | 0.01 | 59 | 1018.0 |
| 20260831114016 | 76 | 253 | 7.0 | 15.0 | 0.00 | 0.01 | 0.01 | 60 | 1018.0 |
| 20260831113017 | 76 | 236 | 6.0 | 13.0 | 0.00 | 0.01 | 0.01 | 59 | 1017.9 |
| 20260831112016 | 78 | 261 | 7.0 | 16.0 | 0.00 | 0.01 | 0.01 | 60 | 1017.9 |
| 20260831111016 | 77 | 258 | 8.0 | 13.0 | 0.00 | 0.01 | 0.01 | 60 | 1018.0 |
| 20260831110038 | 75 | 241 | 5.0 | 13.0 | 0.00 | 0.01 | 0.01 | 63 | 1018.0 |
| 20260831105015 | 76 | 265 | 5.0 | 11.0 | 0.00 | 0.01 | 0.01 | 61 | 1018.0 |
| 20260831104016 | 76 | 259 | 5.0 | 13.0 | 0.00 | 0.01 | 0.01 | 62 | 1018.1 |
| 20260831103038 | 75 | 250 | 5.0 | 13.0 | 0.00 | 0.01 | 0.01 | 62 | 1018.1 |
| 20260831102015 | 74 | 221 | 8.0 | 16.0 | 0.00 | 0.01 | 0.01 | 64 | 1018.2 |
| 20260831101038 | 73 | 245 | 5.0 | 11.0 | 0.00 | 0.01 | 0.01 | 65 | 1018.3 |
| 20260831100016 | 73 | 230 | 6.0 | 13.0 | 0.00 | 0.01 | 0.01 | 65 | 1018.4 |
| 20260831095016 | 73 | 272 | 5.0 | 12.0 | 0.00 | 0.01 | 0.01 | 65 | 1018.5 |
| 20260831094015 | 73 | 258 | 7.0 | 12.0 | 0.00 | 0.01 | 0.01 | 65 | 1018.5 |
| 20260831093017 | 73 | 261 | 6.0 | 12.0 | 0.00 | 0.01 | 0.01 | 64 | 1018.5 |
| 20260831092017 | 75 | 273 | 7.0 | 12.0 | 0.00 | 0.01 | 0.01 | 63 | 1018.6 |
| 20260831091015 | 74 | 238 | 7.0 | 16.0 | 0.00 | 0.01 | 0.01 | 64 | 1018.5 |
| 20260831090036 | 74 | 258 | 7.0 | 14.0 | 0.00 | 0.01 | 0.01 | 64 | 1018.4 |
| 20260831085016 | 72 | 281 | 7.0 | 13.0 | 0.00 | 0.01 | 0.01 | 66 | 1018.5 |
| 20260831084018 | 73 | 276 | 9.0 | 18.0 | 0.00 | 0.01 | 0.01 | 65 | 1018.4 |
| 20260831083015 | 73 | 257 | 8.0 | 15.0 | 0.00 | 0.01 | 0.01 | 66 | 1018.4 |
| 20260831082019 | 73 | 256 | 5.0 | 10.0 | 0.00 | 0.01 | 0.01 | 67 | 1018.3 |
| 20260831081016 | 72 | 240 | 5.0 | 12.0 | 0.00 | 0.01 | 0.01 | 68 | 1018.3 |
| 20260831080019 | 71 | 237 | 6.0 | 13.0 | 0.00 | 0.01 | 0.01 | 71 | 1018.2 |
| 20260831075017 | 70 | 259 | 7.0 | 15.0 | 0.00 | 0.01 | 0.01 | 72 | 1018.1 |
| 20260831074019 | 69 | 247 | 6.0 | 11.0 | 0.00 | 0.01 | 0.01 | 72 | 1017.9 |
| 20260831073019 | 69 | 239 | 7.0 | 15.0 | 0.00 | 0.01 | 0.01 | 73 | 1017.9 |
| 20260831072017 | 69 | 254 | 7.0 | 17.0 | 0.00 | 0.01 | 0.01 | 74 | 1017.8 |
| 20260831071017 | 68 | 236 | 8.0 | 18.0 | 0.00 | 0.01 | 0.01 | 74 | 1017.7 |
| 20260831070016 | 67 | 238 | 4.0 | 12.0 | 0.00 | 0.01 | 0.01 | 76 | 1017.7 |
| 20260831065018 | 66 | 231 | 5.0 | 11.0 | 0.00 | 0.01 | 0.01 | 77 | 1017.6 |
| 20260831064017 | 66 | 240 | 5.0 | 14.0 | 0.00 | 0.01 | 0.01 | 76 | 1017.5 |
| 20260831063018 | 67 | 231 | 7.0 | 14.0 | 0.00 | 0.01 | 0.01 | 76 | 1017.5 |
| 20260831062037 | 67 | 240 | 8.0 | 19.0 | 0.00 | 0.01 | 0.01 | 76 | 1017.4 |
| 20260831061015 | 67 | 236 | 6.0 | 13.0 | 0.00 | 0.01 | 0.01 | 76 | 1017.4 |
| 20260831060017 | 66 | 235 | 9.0 | 15.0 | 0.00 | 0.01 | 0.01 | 77 | 1017.1 |
| 20260831055016 | 65 | 226 | 8.0 | 16.0 | 0.00 | 0.01 | 0.01 | 79 | 1017.1 |
| 20260831054016 | 64 | 220 | 6.0 | 12.0 | 0.00 | 0.01 | 0.01 | 80 | 1017.0 |
| 20260831053016 | 64 | 210 | 5.0 | 8.0 | 0.00 | 0.01 | 0.01 | 81 | 1017.0 |
| 20260831052016 | 63 | 196 | 3.0 | 7.0 | 0.00 | 0.01 | 0.01 | 81 | 1017.0 |
| 20260831051038 | 63 | 179 | 4.0 | 7.0 | 0.00 | 0.01 | 0.01 | 81 | 1017.0 |
| 20260831050019 | 63 | 187 | 3.0 | 7.0 | 0.00 | 0.01 | 0.01 | 81 | 1016.9 |
| 20260831045017 | 63 | 190 | 3.0 | 7.0 | 0.00 | 0.01 | 0.01 | 82 | 1016.9 |
| 20260831044016 | 63 | 200 | 3.0 | 6.0 | 0.00 | 0.01 | 0.01 | 82 | 1017.0 |
| 20260831043016 | 63 | 203 | 3.0 | 6.0 | 0.00 | 0.01 | 0.01 | 82 | 1017.0 |
| 20260831042016 | 63 | 212 | 4.0 | 9.0 | 0.01 | 0.01 | 0.01 | 82 | 1017.1 |
| 20260831040017 | 63 | 214 | 4.0 | 8.0 | 0.01 | 0.01 | 0.01 | 85 | 1016.8 |
| 20260831035019 | 64 | 236 | 3.0 | 7.0 | 0.01 | 0.01 | 0.01 | 84 | 1016.7 |
| 20260831034016 | 64 | 238 | 5.0 | 10.0 | 0.01 | 0.01 | 0.01 | 83 | 1017.0 |
| 20260831033015 | 65 | 244 | 9.0 | 17.0 | 0.01 | 0.01 | 0.01 | 82 | 1017.4 |
| 20260831032017 | 65 | 256 | 11.0 | 22.0 | 0.00 | 0.00 | 0.00 | 82 | 1017.5 |
| 20260831031017 | 64 | 239 | 10.0 | 20.0 | 0.00 | 0.00 | 0.00 | 84 | 1017.4 |
| 20260831030017 | 64 | 148 | 2.0 | 3.0 | 0.00 | 0.00 | 0.00 | 84 | 1015.0 |
| 20260831025038 | 64 | 140 | 2.0 | 4.0 | 0.00 | 0.00 | 0.00 | 84 | 1014.8 |
| 20260831024018 | 64 | 137 | 1.0 | 3.0 | 0.00 | 0.00 | 0.00 | 84 | 1015.1 |
| 20260831023019 | 65 | 128 | 1.0 | 3.0 | 0.00 | 0.00 | 0.00 | 83 | 1014.9 |